World > North America > United States > Iowa > Bronson  

Bronson, IA Hourly Weather Updates

Feedback E-mail the Weather

Quick Clicks

Bronson, IA Weather Maps

°F °C°F °C
Bronson Weather Map
UTC Time: 6/14/2024, 14:56
Your Time:

Bronson, IA Regional Weather

Expires:202406141500;;004253
ASUS43 KFSD 141410
RWRFSD

WEATHER ROUNDUP FOR SE SOUTH DAKOTA/SW MINNESOTA/NW IOWA
NATIONAL WEATHER SERVICE SIOUX FALLS SD
900 AM CDT FRI JUN 14 2024

NOTE: "FAIR" INDICATES FEW OR NO CLOUDS BELOW 12,000 FEET WITH NO
SIGNIFICANT WEATHER AND OR OBSTRUCTIONS TO VISIBILITY.



IAZ001>003-012>014-020>022-031-032-NEZ013-014-SDZ071-141500-
NORTHWEST IOWA
  
CITY           SKY/WX    TMP DP  RH WIND       PRES   REMARKS
CHEROKEE       SUNNY     70  54  56 VRB3      30.12S TC  21           
DENISON        SUNNY     72  63  73 CALM      30.13R TC  22           
ESTHERVILLE    SUNNY     74  46  36 NW5       30.11R TC  23           
LE MARS        SUNNY     72  54  53 NE5       30.12R TC  22           
MAURICE        SUNNY     73  54  49 E6        30.11S TC  23           
SHELDON        SUNNY     73  50  43 SE5       30.12R TC  23           
SIOUX CITY     SUNNY     74  52  46 NE6       30.12R TC  23           
SPENCER        SUNNY     74  54  49 CALM      30.12S TC  23           
STORM LAKE     SUNNY     72  54  53 NE7       30.13S TC  22           
$$
 
ABBREVIATIONS USED IN REMARKS
   TC - TEMPERATURE IN CELSIUS
  WCI - WIND CHILL INDEX
   HX - HEAT INDEX
  VSB - VISIBILITY

  

SKY/WX - Weather  TMP - Temperature  DP - Dew Point  RH - Humidity
WIND - Wind Direction/Speed PRES - Barometric Pressure VSB - Visibility
WCI - Wind Chill Index E13G22 Wind - East Wind 13 mph/Gusts of 22 mph

Trending Headlines

Trending Entertainment Headlines

Bronson Radar Loop

Use the map search tool if you want to place a location marker on the radar map...

Bronson Quick Facts

National Two Day Weather Forecast


E-mail the Bronson Weather Forecast

Voice your opinion or tell us about page issues...